This is the latest recevied weather packets stored in our database for station/object K1NOT-WX. If no packets are shown the sender has not sent any weather packets the latest 10 day(s).
| Time | Temp. | Humidity | Pressure | Rain* | Wind** | Luminosity | Snow |
|---|---|---|---|---|---|---|---|
| 1777454833 | 8.89° C | 85% | 1015.9 hPa | 0 mm | - | - | - |
| 1777453933 | 10° C | 87% | 1015.6 hPa | 0 mm | - | - | - |
| 1777453033 | 9.44° C | 85% | 1015.9 hPa | 0 mm | - | - | - |
| 1777452133 | 9.44° C | 86% | 1015.9 hPa | 0 mm | - | - | - |
| 1777451233 | 9.44° C | 87% | 1016.3 hPa | 0 mm | - | - | - |
| 1777450333 | 8.89° C | 88% | 1016.3 hPa | 0 mm | - | - | - |
| 1777449433 | 8.89° C | 88% | 1015.9 hPa | 0 mm | - | - | - |
| 1777448533 | 8.89° C | 89% | 1015.6 hPa | 0 mm | - | - | - |
| 1777447633 | 8.89° C | 89% | 1015.6 hPa | 0 mm | - | - | - |
| 1777446733 | 9.44° C | 87% | 1015.9 hPa | 0 mm | - | - | - |
| 1777445833 | 9.44° C | 87% | 1015.6 hPa | 0 mm | - | - | - |
| 1777444933 | 9.44° C | 87% | 1015.6 hPa | 0 mm | - | - | - |
| 1777444033 | 9.44° C | 88% | 1015.6 hPa | 0 mm | - | - | - |
| 1777443133 | 9.44° C | 89% | 1015.6 hPa | 0 mm | - | - | - |
| 1777442233 | 9.44° C | 89% | 1015.6 hPa | 0 mm | - | - | - |
| 1777441333 | 9.44° C | 89% | 1015.6 hPa | 0 mm | - | - | - |
| 1777440433 | 9.44° C | 89% | 1015.6 hPa | 0 mm | - | - | - |
| 1777439532 | 9.44° C | 89% | 1015.2 hPa | 0 mm | - | - | - |
| 1777438632 | 9.44° C | 89% | 1015.2 hPa | 0 mm | - | - | - |
| 1777437733 | 9.44° C | 89% | 1015.6 hPa | 0 mm | - | - | - |
| 1777436832 | 10° C | 88% | 1015.2 hPa | 0 mm | - | - | - |
| 1777435932 | 10° C | 87% | 1014.9 hPa | 0 mm | - | - | - |
| 1777435032 | 10.56° C | 85% | 1014.9 hPa | 0 mm | - | - | - |
| 1777434132 | 11.11° C | 83% | 1014.9 hPa | 0 mm | - | - | - |
| 1777433232 | 11.11° C | 82% | 1014.9 hPa | 0 mm | - | - | - |
* Rain latest hour (hover to see other rain measurements)
** Current wind speed in m/s (hover to see current wind gust speed)